Location: Rouyn
(48.2500°N, 79.0330°W)
Time: 11:19:19
(UTC-04:00)

ISS - Visible Passes

Search period start: 26 September 2020 00:00
Search period end: 06 October 2020 00:00
Orbit: 419 x 421 km, 51.6° (Epoch: 27 September)

Date Brightness Start Highest point End Pass type
(mag) Time Alt. Az. Time Alt. Az. Time Alt. Az.
26 Sep -2.9 20:24:03 10° WNW 20:27:18 44° N 20:29:02 23° ENE visible
26 Sep -0.9 22:01:01 10° WNW 22:02:00 18° WNW 22:02:00 18° WNW visible
27 Sep -3.0 19:36:42 10° W 19:39:58 46° N 19:43:15 10° ENE visible
27 Sep -2.9 21:13:46 10° WNW 21:16:30 48° NNW 21:16:30 48° NNW visible
28 Sep -3.2 20:26:29 10° WNW 20:29:48 50° N 20:31:00 32° ENE visible
28 Sep -0.6 22:03:21 10° WNW 22:03:58 14° WNW 22:03:58 14° WNW visible
29 Sep -3.1 19:39:10 10° WNW 19:42:26 46° N 19:45:30 11° E visible
29 Sep -2.6 21:16:03 10° WNW 21:18:28 43° WNW 21:18:28 43° WNW visible
30 Sep -3.8 20:28:46 10° WNW 20:32:09 76° NNE 20:33:00 47° E visible
30 Sep -0.3 22:05:54 10° W 22:05:58 10° W 22:05:58 10° W visible
01 Oct -3.5 19:41:28 10° WNW 19:44:49 60° NNE 19:47:33 14° E visible
01 Oct -1.9 21:18:25 10° WNW 21:20:31 29° WSW 21:20:31 29° WSW visible
02 Oct -3.3 20:31:01 10° WNW 20:34:21 55° SSW 20:35:08 42° SSE visible
03 Oct -3.7 19:43:41 10° WNW 19:47:04 79° SSW 19:49:47 15° ESE visible
03 Oct -1.1 21:21:13 10° W 21:22:46 16° WSW 21:22:46 16° WSW visible
04 Oct -1.9 20:33:29 10° W 20:36:18 25° SW 20:37:31 20° S visible
05 Oct -2.4 19:45:57 10° WNW 19:49:06 37° SW 19:52:13 10° SE visible
